"2014-05-26",00:01,10.885,10.671,10.98,10.64,10.43,10.98,92.4,-5.228,-1.863,326.3,367.3,-44.4,-0.499,0.,328.3,0,7999.,0.000,100,101.9696,3.463,3.575,2.581,2.79,318.333,1.551,1.8,304.736,0.57,17.8,17.952,16.885,14.351,11.564,10.608,16.723,-999.,-999.,15.401,-12.603,-3.266,-12.564,-36.614,0.452,0.616,0.684,0.749,0.384,0.621,0.712,0.743,0.577,0.,100.
"2014-05-26",00:02,10.849,10.648,10.95,10.63,10.42,10.96,92.6,-5.228,-1.863,326.4,367.4,-44.4,-0.748,0.,328.1,0,7999.,0.000,100,101.9687,3.542,3.7,2.55,2.66,319.533,1.522,1.87,305.87,0.57,17.807,17.949,16.872,14.351,11.564,10.595,16.723,-999.,-999.,15.401,-12.614,-3.293,-12.586,-36.586,0.453,0.616,0.684,0.748,0.384,0.62,0.713,0.744,0.578,0.,100.
"2014-05-26",00:03,10.852,10.628,10.93,10.62,10.515,10.94,92.7,-5.223,-1.851,326.3,367.6,-44.7,-0.997,0.,328.2,0,7999.,0.010,100,101.9708,3.529,3.638,2.561,2.73,321.533,1.506,1.74,309.801,0.57,17.797,17.951,16.885,14.351,11.564,10.612,16.723,-999.,-999.,15.401,-12.623,-3.319,-12.607,-36.562,0.451,0.618,0.683,0.748,0.384,0.622,0.713,0.743,0.577,0.,100.
"2014-05-26",00:04,10.872,10.651,10.99,10.64,10.66,10.96,92.8,-5.194,-1.828,326.5,367.6,-44.5,-0.997,0.,328.2,0,7999.,0.000,100,101.973,3.463,3.575,2.63,2.77,327.,1.517,1.95,316.05,0.57,17.79,17.945,16.889,14.355,11.56,10.608,16.727,-999.,-999.,15.401,-12.632,-3.346,-12.628,-36.533,0.452,0.617,0.683,0.748,0.384,0.622,0.712,0.743,0.577,0.,100.
"2014-05-26",00:05,10.957,10.71,11.04,10.71,10.774,11.,92.8,-5.132,-1.816,326.7,367.7,-44.3,-0.997,0.,328.3,0,7999.,0.000,100,101.9734,3.358,3.513,2.503,2.67,332.399,1.4,1.72,321.6,0.57,17.791,17.945,16.882,14.355,11.567,10.605,16.704,-999.,-999.,15.394,-12.643,-3.371,-12.649,-36.51,0.452,0.617,0.683,0.748,0.385,0.62,0.712,0.744,0.577,0.,100.
"2014-05-26",00:06,11.016,10.789,11.12,10.78,10.84,11.06,92.9,-5.046,-1.81,326.9,367.7,-44.0,-0.997,0.,328.9,0,7999.,0.000,100,101.9727,2.958,3.263,2.428,2.6,330.399,1.514,1.89,318.132,0.57,17.778,17.945,16.885,14.351,11.564,10.605,16.684,-999.,-999.,15.397,-12.653,-3.397,-12.669,-36.486,0.452,0.615,0.683,0.748,0.384,0.622,0.711,0.742,0.577,0.,100.
"2014-05-26",00:07,11.065,10.861,11.14,10.83,10.778,11.09,93.1,-4.984,-1.798,327.3,368.3,-44.2,-0.997,0.,329.1,0,7999.,0.000,100,101.9728,2.704,2.888,2.319,2.53,328.2,1.417,1.69,313.465,0.57,17.761,17.942,16.895,14.355,11.564,10.612,16.658,-999.,-999.,15.404,-12.662,-3.422,-12.691,-36.462,0.452,0.616,0.684,0.747,0.384,0.622,0.712,0.743,0.577,0.,100.
"2014-05-26",00:08,11.085,10.888,11.2,10.85,10.728,11.12,93.2,-4.944,-1.804,327.3,368.4,-44.2,-1.08,0.,329.1,0,7999.,0.000,100,101.9729,2.729,2.888,2.189,2.4,329.,1.279,1.5,312.,0.57,17.734,17.935,16.902,14.355,11.557,10.595,16.661,-999.,-999.,15.397,-12.669,-3.45,-12.711,-36.436,0.451,0.62,0.683,0.748,0.384,0.621,0.712,0.742,0.577,0.,100.
"2014-05-26",00:09,11.088,10.891,11.17,10.85,10.758,11.14,93.5,-4.892,-1.798,326.9,367.8,-44.0,-0.997,0.,329.4,0,7999.,0.000,100,101.9734,2.558,2.825,2.048,2.21,327.734,1.098,1.32,309.6,0.57,17.728,17.938,16.898,14.351,11.564,10.602,16.645,-999.,-999.,15.394,-12.678,-3.474,-12.733,-36.41,0.451,0.618,0.683,0.748,0.384,0.622,0.712,0.743,0.576,0.,100.
"2014-05-26",00:10,11.082,10.881,11.15,10.85,10.768,11.14,93.7,-4.932,-1.827,327.3,367.7,-43.5,-0.997,0.,329.6,0,7999.,0.000,100,101.9724,2.504,2.763,2.096,2.24,326.533,1.266,1.47,308.138,0.57,17.725,17.948,16.902,14.355,11.557,10.591,16.652,-999.,-999.,15.397,-12.686,-3.499,-12.751,-36.378,0.451,0.615,0.684,0.749,0.384,0.621,0.712,0.741,0.577,0.,100.
"2014-05-26",00:11,11.082,10.875,11.13,10.85,10.797,11.12,93.6,-4.938,-1.81,327.5,368.,-43.6,-0.997,0.,329.6,0,7999.,0.000,100,101.9736,2.638,2.825,2.018,2.15,326.2,1.165,1.42,308.673,0.57,17.721,17.942,16.902,14.355,11.564,10.605,16.652,-999.,-999.,15.397,-12.696,-3.521,-12.757,-36.35,0.451,0.616,0.684,0.748,0.384,0.621,0.713,0.743,0.576,0.,100.
"2014-05-26",00:12,11.072,10.861,11.14,10.86,10.794,11.14,93.6,-4.904,-1.816,327.6,368.3,-43.8,-1.164,0.,329.7,0,7999.,0.000,100,101.9744,2.833,2.95,1.936,2.07,327.599,1.146,1.41,313.534,0.57,17.718,17.942,16.902,14.355,11.554,10.601,16.645,-999.,-999.,15.404,-12.704,-3.549,-12.772,-36.318,0.451,0.618,0.683,0.75,0.384,0.62,0.712,0.743,0.576,0.,100.
"2014-05-26",00:13,11.078,10.888,11.13,10.85,10.863,11.12,93.5,-4.892,-1.81,327.4,368.3,-44.0,-1.164,0.,329.7,0,7999.,0.000,100,101.9743,2.792,2.95,1.937,2.15,329.133,1.169,1.36,316.064,0.57,17.718,17.942,16.905,14.355,11.56,10.618,16.648,-999.,-999.,15.401,-12.712,-3.573,-12.79,-36.276,0.451,0.616,0.683,0.75,0.384,0.623,0.712,0.743,0.576,0.,100.
"2014-05-26",00:14,11.101,10.881,11.19,10.85,10.912,11.16,93.4,-4.898,-1.839,327.2,367.9,-43.8,-1.247,0.,329.5,0,7999.,0.000,100,101.9749,2.746,2.888,1.852,2.,331.2,1.142,1.4,315.728,0.57,17.718,17.938,16.898,14.355,11.56,10.591,16.652,-999.,-999.,15.397,-12.72,-3.598,-12.817,-36.234,0.451,0.618,0.683,0.749,0.384,0.621,0.711,0.742,0.577,0.,100.
"2014-05-26",00:15,11.085,10.888,11.21,10.86,10.931,11.18,93.5,-4.91,-1.839,327.7,368.,-43.4,-0.997,0.,329.7,0,7999.,0.000,100,101.9757,2.621,2.888,1.79,1.95,332.067,1.085,1.38,317.399,0.57,17.718,17.928,16.902,14.355,11.56,10.581,16.648,-999.,-999.,15.397,-12.728,-3.621,-12.838,-36.19,0.451,0.617,0.683,0.748,0.384,0.621,0.712,0.746,0.576,0.,100.
"2014-05-26",00:16,11.078,10.861,11.19,10.85,10.957,11.16,93.4,-4.898,-1.857,327.4,367.6,-43.2,-0.997,0.,330.,0,7999.,0.000,100,101.9738,2.425,2.575,1.898,2.1,333.799,0.943,1.15,317.934,0.57,17.718,17.938,16.902,14.355,11.564,10.598,16.641,-999.,-999.,15.391,-12.736,-3.644,-12.854,-36.14,0.451,0.617,0.683,0.748,0.384,0.621,0.712,0.743,0.576,0.,100.
"2014-05-26",00:17,11.039,10.832,11.13,10.86,10.915,11.13,93.5,-4.938,-1.875,327.6,367.2,-42.7,-0.997,0.,330.1,0,7999.,0.000,100,101.973,2.375,2.45,1.879,2.,332.334,1.053,1.26,311.87,0.57,17.715,17.935,16.905,14.358,11.564,10.594,16.632,-999.,-999.,15.397,-12.74,-3.669,-12.874,-36.098,0.451,0.619,0.684,0.748,0.383,0.621,0.712,0.746,0.576,0.,100.
"2014-05-26",00:18,10.967,10.793,11.07,10.8,10.862,11.1,93.5,-4.984,-1.869,327.8,367.1,-42.4,-0.997,0.,330.1,0,7999.,0.000,100,101.9721,2.367,2.575,1.885,1.95,329.533,1.131,1.28,314.067,0.57,17.711,17.921,16.905,14.351,11.567,10.605,16.615,-999.,-999.,15.41,-12.747,-3.694,-12.892,-36.043,0.451,0.617,0.683,0.748,0.383,0.623,0.712,0.743,0.577,0.,100.
"2014-05-26",00:19,10.875,10.717,10.99,10.75,10.753,11.06,93.4,-4.995,-1.875,328.,367.,-42.1,-0.997,0.,330.6,0,7999.,0.000,100,101.9714,2.396,2.513,1.865,2.02,329.667,0.947,1.21,314.334,0.57,17.695,17.914,16.902,14.358,11.557,10.588,16.592,-999.,-999.,15.394,-12.751,-3.716,-12.905,-35.988,0.452,0.616,0.683,0.748,0.384,0.621,0.713,0.742,0.576,0.,100.
"2014-05-26",00:20,10.855,10.681,10.97,10.71,10.793,11.05,93.3,-4.995,-1.899,327.3,365.6,-41.4,-0.997,0.,330.4,0,7999.,0.000,100,101.9712,2.283,2.388,1.729,1.96,330.267,0.543,0.74,328.026,0.57,17.705,17.928,16.902,14.351,11.557,10.605,16.572,-999.,-999.,15.397,-12.758,-3.74,-12.917,-35.94,0.451,0.616,0.683,0.748,0.384,0.621,0.712,0.743,0.576,0.,100.
"2014-05-26",00:21,10.842,10.655,10.92,10.7,10.856,11.07,93.2,-5.035,-1.977,326.4,363.6,-40.3,-0.873,0.,330.,0,7999.,0.000,100,101.9711,2.113,2.263,1.603,1.7,332.401,0.189,0.34,12.819,0.57,17.695,17.928,16.905,14.355,11.56,10.588,16.569,-999.,-999.,15.404,-12.764,-3.764,-12.937,-35.883,0.451,0.615,0.684,0.747,0.384,0.621,0.713,0.741,0.577,0.,100.
"2014-05-26",00:22,10.846,10.642,10.9,10.67,10.734,11.07,93.,-5.081,-2.031,326.9,363.1,-39.2,-0.706,0.,330.2,0,7999.,0.000,100,101.9718,1.846,1.95,1.623,1.76,334.933,0.235,0.34,37.935,0.57,17.675,17.922,16.902,14.351,11.567,10.602,16.569,-999.,-999.,15.401,-12.767,-3.786,-12.95,-35.83,0.451,0.617,0.684,0.748,0.384,0.62,0.712,0.742,0.576,0.,100.
"2014-05-26",00:23,10.868,10.651,10.9,10.63,10.761,11.08,92.7,-5.092,-2.078,327.3,362.6,-38.3,-0.997,0.,330.5,0,7999.,0.000,100,101.9694,1.788,1.95,1.727,1.78,340.,0.194,0.25,8.935,0.57,17.669,17.909,16.902,14.355,11.567,10.595,16.566,-999.,-999.,15.404,-12.77,-3.808,-12.966,-35.778,0.452,0.616,0.684,0.747,0.383,0.621,0.712,0.744,0.576,0.,100.
"2014-05-26",00:24,10.977,10.733,10.94,10.66,10.732,11.11,92.5,-5.109,-2.198,327.5,362.1,-37.5,-0.997,0.,330.5,0,7999.,0.000,100,101.9676,1.9,2.013,1.749,1.87,346.401,0.337,0.4,349.389,0.57,17.663,17.913,16.902,14.355,11.56,10.602,16.566,-999.,-999.,15.404,-12.777,-3.835,-12.981,-35.725,0.451,0.617,0.684,0.748,0.382,0.621,0.712,0.742,0.576,0.,100.
"2014-05-26",00:25,11.046,10.819,11.02,10.7,10.627,11.15,92.4,-5.155,-2.234,327.8,361.7,-36.8,-0.997,0.,330.9,0,7999.,0.000,100,101.9695,1.792,1.888,1.601,1.68,348.333,0.317,0.36,351.863,0.57,17.652,17.902,16.905,14.355,11.57,10.595,16.566,-999.,-999.,15.397,-12.777,-3.856,-12.995,-35.676,0.451,0.617,0.684,0.748,0.383,0.622,0.711,0.745,0.576,0.,100.
"2014-05-26",00:26,11.016,10.822,11.11,10.78,10.512,11.2,92.3,-5.16,-2.27,328.2,361.7,-36.4,-0.997,0.,331.,0,7999.,0.000,100,101.9696,1.771,1.888,1.428,1.54,351.466,0.317,0.39,24.746,0.57,17.639,17.909,16.902,14.355,11.56,10.598,16.566,-999.,-999.,15.401,-12.779,-3.878,-13.011,-35.631,0.451,0.617,0.683,0.749,0.382,0.621,0.712,0.743,0.575,0.,100.
"2014-05-26",00:27,11.049,10.838,11.14,10.85,10.401,11.23,92.7,-5.16,-2.281,328.9,362.7,-36.7,-0.997,0.,330.9,0,7999.,0.000,100,101.9714,1.75,1.825,1.31,1.4,356.533,0.49,0.65,24.283,0.57,17.643,17.902,16.905,14.351,11.56,10.595,16.563,-999.,-999.,15.394,-12.785,-3.902,-13.024,-35.586,0.452,0.618,0.683,0.749,0.382,0.621,0.712,0.742,0.576,0.,100.
"2014-05-26",00:28,11.016,10.812,11.11,10.85,10.368,11.24,92.8,-5.155,-2.329,328.9,362.3,-36.2,-0.997,0.,331.,0,7999.,0.000,100,101.972,1.721,1.825,1.279,1.48,352.871,0.525,0.64,10.984,0.57,17.643,17.896,16.905,14.355,11.56,10.598,16.54,-999.,-999.,15.401,-12.788,-3.924,-13.037,-35.544,0.451,0.616,0.684,0.75,0.382,0.621,0.712,0.741,0.577,0.,100.
"2014-05-26",00:29,10.941,10.763,10.98,10.75,10.375,11.17,92.5,-5.138,-2.359,329.4,362.3,-35.7,-0.997,0.,331.,0,7999.,0.000,100,101.9681,1.729,1.825,1.384,1.5,344.733,0.714,0.91,35.105,0.57,17.639,17.899,16.898,14.355,11.56,10.605,16.517,-999.,-999.,15.397,-12.788,-3.946,-13.049,-35.508,0.451,0.615,0.684,0.748,0.383,0.62,0.712,0.742,0.575,0.,100.
"2014-05-26",00:30,10.855,10.688,10.86,10.67,10.394,11.09,92.2,-5.172,-2.353,329.8,362.7,-35.7,-0.997,0.,331.2,0,7999.,0.000,100,101.9656,1.892,2.013,1.607,1.67,336.666,0.687,0.81,351.47,0.57,17.643,17.896,16.902,14.355,11.564,10.599,16.504,-999.,-999.,15.401,-12.79,-3.97,-13.062,-35.474,0.452,0.617,0.683,0.75,0.382,0.621,0.712,0.743,0.576,0.,100.
"2014-05-26",00:31,10.852,10.658,10.89,10.62,10.404,11.07,92.2,-5.217,-2.389,329.9,362.8,-35.7,-0.914,0.,331.2,0,7783.,0.000,100,101.9641,2.008,2.2,1.683,1.78,334.067,0.834,0.97,331.87,0.57,17.64,17.889,16.905,14.355,11.567,10.605,16.491,-999.,-999.,15.401,-12.797,-3.994,-13.08,-35.447,0.451,0.616,0.684,0.748,0.382,0.621,0.712,0.744,0.575,0.,100.
"2014-05-26",00:32,10.891,10.704,10.91,10.62,10.408,11.1,92.1,-5.308,-2.365,331.1,363.3,-35.1,-0.623,0.,331.8,0,7727.,0.000,100,101.9647,2.063,2.325,1.673,1.82,332.867,0.985,1.22,327.743,0.57,17.626,17.876,16.905,14.351,11.56,10.605,16.487,-999.,-999.,15.401,-12.798,-4.019,-13.095,-35.426,0.451,0.616,0.683,0.749,0.382,0.62,0.713,0.743,0.576,0.,100.
"2014-05-26",00:33,10.803,10.652,10.88,10.59,10.388,11.07,92.,-5.354,-2.431,330.4,362.5,-35.0,-0.499,0.,331.6,0,7999.,0.000,100,101.9655,2.025,2.263,1.709,1.86,337.865,0.717,0.78,346.592,0.57,17.61,17.879,16.905,14.345,11.56,10.599,16.491,-999.,-999.,15.397,-12.801,-4.041,-13.11,-35.4,0.452,0.616,0.683,0.748,0.383,0.621,0.712,0.743,0.575,0.,100.
"2014-05-26",00:34,10.787,10.583,10.86,10.55,10.283,11.04,91.9,-5.428,-2.455,330.8,362.5,-34.7,-0.332,0.,331.9,0,7727.,0.000,100,101.9678,2.1,2.2,1.631,1.79,341.331,0.767,0.87,0.135,0.57,17.607,17.873,16.902,14.355,11.56,10.602,16.491,-999.,-999.,15.401,-12.808,-4.064,-13.124,-35.387,0.452,0.616,0.684,0.749,0.383,0.621,0.712,0.742,0.575,0.,100.
"2014-05-26",00:35,10.951,10.717,11.02,10.67,10.067,11.07,91.8,-5.4,-2.347,331.7,363.4,-34.8,-0.582,0.,332.,0,7999.,0.000,100,101.9656,2.121,2.2,1.721,1.95,343.664,0.898,1.05,333.582,0.57,17.594,17.87,16.905,14.358,11.557,10.599,16.495,-999.,-999.,15.394,-12.813,-4.084,-13.137,-35.366,0.451,0.616,0.683,0.749,0.384,0.62,0.712,0.745,0.575,0.,100.
"2014-05-26",00:36,10.957,10.792,11.06,10.74,10.129,11.11,92.2,-5.269,-2.305,332.1,363.4,-34.3,-0.997,0.,332.3,0,7999.,0.000,100,101.9671,2.125,2.45,1.863,2.07,337.466,0.797,0.9,337.669,0.57,17.577,17.866,16.898,14.355,11.554,10.599,16.478,-999.,-999.,15.394,-12.818,-4.107,-13.149,-35.364,0.451,0.616,0.683,0.748,0.384,0.62,0.712,0.743,0.575,0.,100.
"2014-05-26",00:37,11.006,10.819,11.07,10.78,10.1,11.1,92.7,-5.16,-2.353,332.3,363.4,-33.9,-0.956,0.,332.6,0,7999.,0.000,100,101.966,2.133,2.325,1.729,2.05,341.666,1.015,1.28,325.996,0.57,17.568,17.866,16.902,14.362,11.56,10.599,16.449,-999.,-999.,15.408,-12.827,-4.129,-13.167,-35.34,0.45,0.618,0.684,0.748,0.383,0.622,0.712,0.744,0.575,0.,100.
"2014-05-26",00:38,11.091,10.891,11.14,10.82,10.258,11.12,92.9,-5.172,-2.347,333.6,364.,-33.2,-0.499,0.,333.9,0,7999.,0.000,100,101.9667,2.242,2.388,1.81,2.,339.6,1.115,1.24,317.068,0.57,17.564,17.863,16.905,14.358,11.557,10.602,16.442,-999.,-999.,15.388,-12.83,-4.149,-13.18,-35.335,0.451,0.616,0.684,0.748,0.384,0.621,0.711,0.744,0.574,0.,100.
"2014-05-26",00:39,11.095,10.927,11.15,10.86,10.29,11.13,93.4,-5.132,-2.252,334.1,364.7,-33.5,-0.997,0.,333.8,0,7999.,0.000,100,101.9663,2.271,2.325,1.928,2.23,340.333,1.201,1.44,315.8,0.57,17.596,17.881,16.899,14.355,11.554,10.595,16.426,-999.,-999.,15.397,-12.838,-4.172,-13.192,-35.335,0.452,0.615,0.684,0.748,0.383,0.621,0.712,0.743,0.576,0.,100.
"2014-05-26",00:40,11.016,10.881,11.11,10.85,10.359,11.09,93.8,-5.092,-2.275,334.4,365.2,-33.6,-0.997,0.,334.,0,7999.,0.000,100,101.9669,2.35,2.575,2.054,2.29,334.867,1.349,1.52,315.,0.57,17.589,17.874,16.909,14.351,11.557,10.599,16.422,-999.,-999.,15.401,-12.846,-4.195,-13.207,-35.335,0.452,0.617,0.683,0.748,0.383,0.621,0.712,0.742,0.575,0.,100.
"2014-05-26",00:41,10.964,10.842,11.09,10.83,10.398,11.09,93.9,-5.098,-2.198,334.8,365.9,-34.0,-0.997,0.,334.5,0,7999.,0.000,100,101.9667,2.333,2.513,2.055,2.19,333.391,1.406,1.56,314.266,0.57,17.585,17.87,16.909,14.358,11.554,10.599,16.423,-999.,-999.,15.398,-12.854,-4.217,-13.222,-35.335,0.452,0.615,0.683,0.75,0.383,0.62,0.712,0.743,0.575,0.,100.
"2014-05-26",00:42,10.915,10.743,10.99,10.75,10.474,11.02,93.8,-5.075,-2.096,335.4,367.5,-35.1,-1.122,0.,334.9,0,7999.,0.000,100,101.9656,2.429,2.575,2.046,2.35,334.058,1.594,1.83,314.201,0.57,17.582,17.867,16.892,14.352,11.557,10.599,16.423,-999.,-999.,15.408,-12.863,-4.238,-13.233,-35.335,0.451,0.616,0.683,0.748,0.384,0.621,0.712,0.742,0.575,0.,100.
"2014-05-26",00:43,10.97,10.809,11.06,10.78,10.552,11.04,93.4,-4.978,-2.001,335.4,368.8,-36.4,-1.496,0.,334.9,0,7999.,0.000,100,101.9654,2.454,2.638,2.123,2.36,330.794,1.511,1.83,312.933,0.57,17.585,17.874,16.912,14.352,11.554,10.595,16.426,-999.,-999.,15.401,-12.872,-4.26,-13.248,-35.329,0.451,0.616,0.684,0.748,0.383,0.62,0.712,0.744,0.575,0.,100.
"2014-05-26",00:44,11.036,10.874,11.14,10.84,10.615,11.1,93.4,-4.887,-1.959,335.3,369.3,-36.9,-1.496,0.,335.1,0,7999.,0.000,100,101.9661,2.446,2.763,2.082,2.33,332.995,1.429,1.71,313.671,0.57,17.582,17.877,16.908,14.352,11.554,10.599,16.402,-999.,-999.,15.411,-12.88,-4.284,-13.26,-35.319,0.45,0.616,0.683,0.747,0.384,0.62,0.713,0.742,0.575,0.,100.
"2014-05-26",00:45,10.947,10.816,11.06,10.81,10.716,11.08,93.5,-4.853,-1.887,335.3,369.8,-37.5,-1.496,0.,335.3,0,7999.,0.000,100,101.9659,2.875,3.2,2.229,2.49,329.932,1.451,1.82,316.735,0.57,17.576,17.881,16.909,14.355,11.557,10.599,16.393,-999.,-999.,15.398,-12.89,-4.307,-13.276,-35.306,0.451,0.616,0.683,0.748,0.383,0.62,0.712,0.742,0.574,0.,100.
"2014-05-26",00:46,11.01,10.825,11.07,10.79,10.811,11.08,93.5,-4.824,-1.845,334.9,369.8,-37.9,-1.496,0.,335.4,0,7999.,0.000,100,101.9628,2.896,3.388,2.279,2.49,325.,1.32,1.89,319.855,0.57,17.548,17.863,16.902,14.362,11.56,10.599,16.384,-999.,-999.,15.401,-12.898,-4.327,-13.292,-35.293,0.452,0.616,0.684,0.748,0.383,0.622,0.712,0.742,0.575,0.,100.
"2014-05-26",00:47,10.941,10.779,11.01,10.76,10.883,11.05,93.5,-4.824,-1.816,335.7,370.6,-37.9,-1.496,0.,335.8,0,7999.,0.000,100,101.9644,3.154,3.388,2.321,2.51,326.133,1.539,1.75,318.531,0.57,17.545,17.867,16.902,14.355,11.554,10.599,16.38,-999.,-999.,15.398,-12.908,-4.347,-13.306,-35.266,0.451,0.616,0.683,0.75,0.383,0.621,0.712,0.742,0.575,0.,100.
"2014-05-26",00:48,10.96,10.783,11.02,10.74,10.991,11.03,93.3,-4.767,-1.732,335.4,371.1,-38.7,-1.621,0.,335.7,0,7999.,0.000,100,101.9646,3.192,3.388,2.484,2.63,329.733,1.559,1.95,318.404,0.57,17.532,17.874,16.902,14.362,11.557,10.599,16.37,-999.,-999.,15.404,-12.915,-4.37,-13.323,-35.227,0.452,0.616,0.683,0.749,0.384,0.62,0.712,0.742,0.575,0.,100.
"2014-05-26",00:49,11.006,10.819,11.08,10.79,11.007,11.06,93.2,-4.71,-1.756,335.4,371.,-38.6,-1.454,0.,336.1,0,7999.,0.000,100,101.9622,3.25,3.513,2.494,2.63,327.667,1.46,1.83,319.467,0.57,17.529,17.853,16.898,14.352,11.557,10.602,16.363,-999.,-999.,15.398,-12.923,-4.392,-13.337,-35.193,0.45,0.618,0.683,0.748,0.383,0.62,0.712,0.741,0.576,0.,100.
"2014-05-26",00:50,11.,10.812,11.07,10.78,11.007,11.05,93.4,-4.722,-1.732,335.3,371.2,-38.9,-1.371,0.,336.3,0,7999.,0.000,100,101.9623,3.104,3.325,2.585,2.68,326.401,1.519,1.8,315.604,0.57,17.512,17.854,16.912,14.358,11.557,10.599,16.36,-999.,-999.,15.411,-12.93,-4.413,-13.352,-35.14,0.45,0.619,0.683,0.749,0.383,0.62,0.712,0.741,0.574,0.,100.
"2014-05-26",00:51,11.006,10.845,11.09,10.81,10.994,11.07,93.5,-4.739,-1.702,335.4,370.9,-38.5,-1.122,0.,336.6,0,7999.,0.000,100,101.9605,2.996,3.2,2.573,2.95,328.134,1.365,1.73,319.329,0.57,17.512,17.864,16.905,14.355,11.554,10.605,16.346,-999.,-999.,15.401,-12.937,-4.434,-13.366,-35.083,0.45,0.616,0.684,0.748,0.382,0.62,0.712,0.742,0.574,0.,100.
"2014-05-26",00:52,11.15,10.946,11.16,10.86,11.063,11.1,93.8,-4.727,-1.69,335.2,370.8,-38.6,-0.997,0.,336.5,0,7999.,0.000,100,101.9597,3.063,3.45,2.674,2.99,326.134,1.11,1.55,323.956,0.57,17.505,17.854,16.902,14.351,11.564,10.605,16.337,-999.,-999.,15.401,-12.942,-4.457,-13.381,-35.014,0.451,0.616,0.684,0.75,0.382,0.62,0.712,0.744,0.574,0.,100.
"2014-05-26",00:53,11.131,10.986,11.21,10.93,11.096,11.16,93.7,-4.71,-1.69,335.7,370.9,-38.2,-0.997,0.,336.8,0,7999.,0.000,100,101.9593,2.954,3.075,2.826,2.96,326.6,1.463,1.71,315.533,0.57,17.505,17.85,16.905,14.351,11.554,10.599,16.333,-999.,-999.,15.394,-12.95,-4.481,-13.393,-34.941,0.451,0.617,0.684,0.749,0.382,0.62,0.712,0.741,0.574,0.,100.
"2014-05-26",00:54,11.118,10.963,11.17,10.92,11.125,11.15,93.9,-4.682,-1.666,335.6,370.9,-38.3,-1.039,0.,336.9,0,7999.,0.000,100,101.9565,3.088,3.263,2.763,2.88,328.,1.437,1.87,315.133,0.571,17.492,17.847,16.902,14.358,11.56,10.598,16.33,-999.,-999.,15.398,-12.954,-4.502,-13.41,-34.862,0.45,0.616,0.683,0.749,0.382,0.62,0.712,0.742,0.575,0.,100.
"2014-05-26",00:55,11.111,10.96,11.14,10.9,11.148,11.14,93.9,-4.665,-1.666,335.9,371.,-38.1,-1.247,0.,337.1,0,7999.,0.000,100,101.9574,3.308,3.45,2.687,2.89,326.333,1.443,1.77,317.47,0.571,17.485,17.847,16.905,14.355,11.56,10.599,16.337,-999.,-999.,15.401,-12.961,-4.525,-13.425,-34.781,0.451,0.615,0.684,0.748,0.382,0.62,0.712,0.742,0.574,0.,100.
"2014-05-26",00:56,11.16,10.963,11.2,10.93,11.184,11.16,93.8,-4.619,-1.648,336.3,371.8,-38.5,-1.496,0.,337.3,0,7999.,0.000,100,101.9539,3.267,3.45,2.647,2.8,328.467,1.484,1.74,316.459,0.571,17.482,17.84,16.905,14.355,11.567,10.599,16.333,-999.,-999.,15.397,-12.961,-4.549,-13.439,-34.692,0.45,0.617,0.684,0.748,0.382,0.621,0.712,0.741,0.575,0.,100.
"2014-05-26",00:57,11.173,10.976,11.21,10.93,11.22,11.16,93.8,-4.608,-1.66,336.2,371.7,-38.4,-1.33,0.,337.5,0,7999.,0.000,100,101.956,3.125,3.263,2.699,2.8,330.733,1.404,1.7,322.469,0.571,17.482,17.84,16.905,14.355,11.56,10.608,16.33,-999.,-999.,15.394,-12.961,-4.569,-13.454,-34.6,0.451,0.616,0.683,0.749,0.382,0.619,0.712,0.742,0.575,0.,100.
"2014-05-26",00:58,11.216,11.025,11.23,10.94,11.233,11.2,93.7,-4.579,-1.648,336.2,371.5,-38.2,-0.997,0.,337.7,0,7999.,0.000,100,101.9556,2.904,3.013,2.539,2.75,330.267,1.255,1.63,319.869,0.571,17.482,17.83,16.905,14.355,11.577,10.595,16.327,-999.,-999.,15.397,-12.965,-4.591,-13.468,-34.508,0.451,0.615,0.683,0.748,0.382,0.62,0.712,0.743,0.574,0.,100.
"2014-05-26",00:59,11.167,11.015,11.22,10.96,11.233,11.22,93.7,-4.591,-1.66,336.2,371.2,-37.9,-0.997,0.,338.,0,7999.,0.000,100,101.9566,2.638,2.825,2.328,2.49,331.467,1.141,1.36,321.,0.571,17.482,17.827,16.905,14.355,11.567,10.612,16.33,-999.,-999.,15.401,-12.966,-4.614,-13.478,-34.414,0.451,0.616,0.683,0.749,0.382,0.621,0.712,0.741,0.575,0.,100.
"2014-05-26",01:00,11.216,11.025,11.25,10.98,11.276,11.24,93.6,-4.613,-1.678,336.1,370.6,-37.4,-0.997,0.,338.,0,7999.,0.000,100,101.9556,2.504,2.7,2.265,2.36,333.4,0.951,1.14,320.731,0.571,17.482,17.83,16.902,14.355,11.574,10.608,16.33,-999.,-999.,15.404,-12.964,-4.636,-13.493,-34.319,0.45,0.616,0.684,0.749,0.382,0.62,0.712,0.741,0.574,0.,100.
"2014-05-26",01:01,11.249,11.041,11.29,11.01,11.282,11.26,93.7,-4.613,-1.702,336.5,370.3,-36.7,-0.997,0.,338.2,0,7999.,0.000,100,101.9538,2.417,2.575,2.195,2.28,331.467,0.935,1.22,317.468,0.571,17.469,17.817,16.905,14.355,11.57,10.601,16.33,-999.,-999.,15.401,-12.961,-4.659,-13.505,-34.22,0.45,0.616,0.684,0.748,0.382,0.621,0.712,0.742,0.574,0.,100.
"2014-05-26",01:02,11.2,11.042,11.29,11.01,11.236,11.27,94.,-4.659,-1.726,336.8,370.5,-36.6,-0.997,0.,338.4,0,7999.,0.000,100,101.9515,2.429,2.7,2.239,2.36,327.933,1.263,1.36,310.069,0.571,17.462,17.81,16.905,14.355,11.574,10.607,16.33,-999.,-999.,15.401,-12.961,-4.68,-13.517,-34.117,0.45,0.616,0.684,0.748,0.381,0.62,0.713,0.741,0.574,0.,100.
"2014-05-26",01:03,11.2,11.032,11.29,11.02,11.16,11.27,94.1,-4.682,-1.738,336.8,370.5,-36.6,-0.997,0.,338.5,0,7999.,0.000,100,101.9498,2.404,2.513,2.172,2.31,329.333,1.163,1.4,308.398,0.571,17.462,17.803,16.905,14.355,11.577,10.594,16.333,-999.,-999.,15.414,-12.961,-4.704,-13.526,-34.02,0.451,0.615,0.682,0.75,0.381,0.622,0.712,0.742,0.574,0.,100.
"2014-05-26",01:04,11.197,11.032,11.28,11.02,11.117,11.26,94.1,-4.733,-1.75,336.8,370.6,-36.8,-0.956,0.,338.6,0,7999.,0.000,100,101.9486,2.542,2.7,2.253,2.57,329.933,1.229,1.37,310.733,0.571,17.462,17.813,16.902,14.355,11.577,10.594,16.33,-999.,-999.,15.414,-12.952,-4.725,-13.538,-33.913,0.45,0.615,0.684,0.748,0.382,0.62,0.712,0.741,0.575,0.,100.
"2014-05-26",01:05,11.147,10.976,11.18,10.97,11.138,11.21,94.1,-4.756,-1.75,336.8,370.8,-37.0,-0.748,0.,338.4,0,7999.,0.000,100,101.9491,2.617,2.7,2.279,2.4,329.667,1.411,1.62,314.602,0.571,17.452,17.793,16.905,14.355,11.577,10.581,16.33,-999.,-999.,15.417,-12.95,-4.747,-13.552,-33.813,0.45,0.616,0.684,0.749,0.382,0.62,0.711,0.742,0.574,0.,100.
"2014-05-26",01:06,11.131,10.966,11.14,10.93,11.156,11.17,94.,-4.762,-1.726,336.6,370.7,-37.1,-0.499,0.,338.5,0,7999.,0.000,100,101.9485,2.621,2.7,2.254,2.39,329.667,1.187,1.44,313.263,0.571,17.433,17.793,16.908,14.355,11.577,10.583,16.323,-999.,-999.,15.414,-12.941,-4.767,-13.559,-33.716,0.45,0.618,0.684,0.748,0.382,0.62,0.712,0.741,0.574,0.,100.
"2014-05-26",01:07,11.157,10.989,11.18,10.92,11.153,11.18,93.7,-4.773,-1.726,336.7,370.6,-36.9,-0.665,0.,338.3,0,7999.,0.000,100,101.9481,2.675,2.888,2.319,2.44,329.533,1.227,1.48,311.934,0.571,17.429,17.783,16.905,14.355,11.583,10.59,16.33,-999.,-999.,15.417,-12.937,-4.789,-13.569,-33.616,0.451,0.615,0.683,0.749,0.381,0.62,0.712,0.741,0.574,0.,100.
"2014-05-26",01:08,11.167,10.973,11.17,10.93,11.156,11.19,93.8,-4.767,-1.744,336.7,370.5,-36.8,-0.748,0.,338.2,0,7999.,0.000,100,101.9491,2.75,2.888,2.103,2.25,328.6,1.144,1.39,309.934,0.571,17.41,17.783,16.901,14.358,11.583,10.57,16.33,-999.,-999.,15.41,-12.93,-4.81,-13.576,-33.522,0.45,0.619,0.683,0.747,0.382,0.62,0.712,0.743,0.574,0.,100.